Location: 5810 Zion Rd, Cleves, OH 45002, USA
(39.1922°N, 84.7113°W)
Time: 07:50:45
(UTC-05:00)

Vanguard 3 - Pass Details

Date: 17 December 2019
Orbit: 508 x 3263 km, 33.3° (Epoch: 18 January)

Event Time Altitude Azimuth Distance (km) Brightness Sun altitude
Rises 14:08:02 0° 268° (W) 5,490 11.7 23.8°
Reaches altitude 10° 14:13:14 10° 250° (WSW) 4,981 11.9 23.4°
Maximum altitude 14:21:31 17° 216° (SW) 5,008 13.5 22.7°
Drops below altitude 10° 14:31:27 10° 183° (S) 6,060 12.9 21.8°
Sets 14:39:15 0° 167° (SSE) 7,216 12.7 21.0°
